Location: Clanezzo
(45.7500°N, 9.6000°E)
Time: 14:00:48
(UTC+00:00)

COSMOS 2487 - Pass Details

Date: 12 May 2021
Orbit: 431 x 433 km, 74.7° (Epoch: 19 June)

Event Time Altitude Azimuth Distance (km) Brightness Sun altitude
Rises 23:18:14 0° 349° (N) 2,416 7.4 -25.9°
Reaches altitude 10° 23:20:33 10° 3° (N) 1,544 6.1 -25.9°
Enters shadow 23:22:46 24° 41° (NE) 943 4.5 -25.9°
